Thunderstorms From: 22-05-2018 15:00 Until: 23-05-2018 15:00 warning for: Thunderstorms Level: Yellow info button

Although rather usual in this region, locally or potentially dangerous phenomena are expected. (such as local winds, summer thunderstorms, rising streams or high waves) Be aware and pay attention to the latest weather updates, especially if you carry out activities exposed to weather or close to a stream or shoreline. 


Meteo18 Weather Cam more information Meteo18 Weather Cam


warning for Thunderstorms more information blitzortung!


Rain radar more information rain snow radar


Visit our other weather sites:

Template documentation
and downloads

And another site



Weather Underground History page Text

Daily Summary for December 22, 2017 Units:  Metric    English   Both
« Previous Day
Next Day »
Daily Weekly Monthly Yearly Custom
  High: Low: Average:
Temperature: -17.8 °C -13.6 °C -13.2 °C
Dew Point: -17.8 °C -14 °C -13.5 °C
Humidity: Humidity % 90 % 95 %
Wind Speed: 0 km/h 0 km/h 3.4 km/h
Wind Gust: 0 km/h - -
Wind:- - West
Pressure: 0 hPa 35116.2 hPa -
Precipitation: 45.72 mm    
Historical Graphs
 
 
Tabular Data for December 22, 2017
Time Temperature Dew Point Pressure Wind Wind Speed Wind Gust Humidity Rainfall Rate (Hourly)
-17.8 °C -17.8 °C 0 hPa Calm     Humidity % 0 mm
00:02 -13.2 °C -13.4 °C 35173.8 hPa WSW 2.6 km/h 5.1 km/h 97 % 0 mm
00:12 -13.2 °C -13.4 °C 35173.8 hPa Calm   5.1 km/h 97 % 0 mm
00:17 -13.2 °C -13.4 °C 35173.8 hPa Calm   7.7 km/h 97 % 0 mm
00:22 -13.2 °C -13.4 °C 35163.6 hPa West 2.6 km/h 7.7 km/h 97 % 0 mm
00:32 -13.2 °C -13.4 °C 35163.6 hPa WSW 2.6 km/h 7.7 km/h 97 % 0 mm
00:37 -13.2 °C -13.4 °C 35163.6 hPa West 5.1 km/h 7.7 km/h 97 % 0 mm
00:42 -13.2 °C -13.4 °C 35163.6 hPa Calm   7.7 km/h 97 % 0 mm
00:47 -13.2 °C -13.4 °C 35163.6 hPa Calm   7.7 km/h 97 % 0 mm
00:52 -13.3 °C -13.5 °C 35163.6 hPa Calm   7.7 km/h 97 % 0 mm
01:02 -13.2 °C -13.4 °C 35163.6 hPa Calm   2.6 km/h 97 % 0 mm
01:07 -13.2 °C -13.4 °C 35163.6 hPa NW 5.1 km/h 7.7 km/h 97 % 0 mm
01:12 -13.2 °C -13.4 °C 35163.6 hPa WNW 10.3 km/h 10.3 km/h 97 % 0 mm
01:17 -13.1 °C -13.3 °C 35150.1 hPa WNW 7.7 km/h 12.9 km/h 97 % 0 mm
01:22 -13.1 °C -13.3 °C 35150.1 hPa West 5.1 km/h 12.9 km/h 97 % 0 mm
01:27 -13.1 °C -13.3 °C 35150.1 hPa WNW 7.7 km/h 12.9 km/h 97 % 0 mm
01:32 -13.1 °C -13.3 °C 35150.1 hPa Calm   12.9 km/h 97 % 0 mm
01:42 -13.1 °C -13.3 °C 35150.1 hPa West 2.6 km/h 12.9 km/h 97 % 0 mm
01:47 -13.1 °C -13.3 °C 35150.1 hPa Calm   7.7 km/h 97 % 0 mm
01:52 -13.1 °C -13.3 °C 35150.1 hPa West 5.1 km/h 7.7 km/h 97 % 0 mm
01:57 -13.1 °C -13.3 °C 35150.1 hPa West 10.3 km/h 12.9 km/h 97 % 0 mm
02:07 -13.1 °C -13.3 °C 35150.1 hPa West 5.1 km/h 12.9 km/h 97 % 0 mm
02:17 -13.1 °C -13.3 °C 35150.1 hPa WSW 5.1 km/h 12.9 km/h 97 % 0 mm
02:22 -13.1 °C -13.3 °C 35139.9 hPa WNW 7.7 km/h 12.9 km/h 97 % 0 mm
02:32 -13.1 °C -13.3 °C 35139.9 hPa West 2.6 km/h 12.9 km/h 97 % 0 mm
02:37 -13.1 °C -13.3 °C 35150.1 hPa NW 5.1 km/h 12.9 km/h 97 % 0 mm
02:42 -13.1 °C -13.3 °C 35139.9 hPa WNW 5.1 km/h 12.9 km/h 97 % 0 mm
02:47 -13.1 °C -13.3 °C 35139.9 hPa West 2.6 km/h 10.3 km/h 97 % 0 mm
02:57 -13.1 °C -13.3 °C 35139.9 hPa West 5.1 km/h 10.3 km/h 97 % 0 mm
03:02 -13.1 °C -13.3 °C 35139.9 hPa WSW 5.1 km/h 10.3 km/h 97 % 0 mm
03:07 -13.1 °C -13.3 °C 35139.9 hPa West 2.6 km/h 12.9 km/h 97 % 0 mm
03:12 -13.1 °C -13.3 °C 35139.9 hPa West 7.7 km/h 12.9 km/h 97 % 0 mm
03:17 -13.1 °C -13.3 °C 35139.9 hPa WNW 5.1 km/h 10.3 km/h 97 % 0 mm
03:22 -13.1 °C -13.3 °C 35139.9 hPa WNW 7.7 km/h 10.3 km/h 97 % 0 mm
03:37 -13 °C -13.2 °C 35139.9 hPa WSW 2.6 km/h 15.6 km/h 97 % 0 mm
03:42 -13.1 °C -13.3 °C 35139.9 hPa Calm   15.6 km/h 97 % 0 mm
03:47 -13.1 °C -13.3 °C 35139.9 hPa WNW 5.1 km/h 12.9 km/h 97 % 0 mm
03:52 -13.1 °C -13.3 °C 35139.9 hPa West 2.6 km/h 12.9 km/h 97 % 0 mm
03:57 -13 °C -13.2 °C 35139.9 hPa WNW 2.6 km/h 12.9 km/h 97 % 0 mm
04:02 -13.1 °C -13.3 °C 35129.8 hPa WNW 2.6 km/h 12.9 km/h 97 % 0 mm
04:07 -13.1 °C -13.3 °C 35129.8 hPa Calm   12.9 km/h 97 % 7.62 mm
04:12 -13.1 °C -13.4 °C 35129.8 hPa West 5.1 km/h 12.9 km/h 96 % 7.62 mm
04:22 -13.1 °C -13.3 °C 35129.8 hPa NW 2.6 km/h 12.9 km/h 97 % 7.62 mm
04:32 -13.1 °C -13.4 °C 35129.8 hPa NW 7.7 km/h 12.9 km/h 96 % 7.62 mm
04:47 -13 °C -13.3 °C 35129.8 hPa NW 5.1 km/h 15.6 km/h 96 % 7.62 mm
05:02 -13.1 °C -13.4 °C 35116.2 hPa WNW 2.6 km/h 15.6 km/h 96 % 7.62 mm
05:07 -13 °C -13.3 °C 35116.2 hPa NW 5.1 km/h 15.6 km/h 96 % 0 mm
05:17 -13 °C -13.3 °C 35129.8 hPa NW 5.1 km/h 15.6 km/h 96 % 0 mm
05:22 -13 °C -13.3 °C 35116.2 hPa NW 7.7 km/h 15.6 km/h 96 % 0 mm
05:27 -13.1 °C -13.4 °C 35129.8 hPa NW 5.1 km/h 12.9 km/h 96 % 0 mm
05:32 -13.1 °C -13.4 °C 35116.2 hPa NNW 2.6 km/h 12.9 km/h 96 % 0 mm
05:42 -13.1 °C -13.4 °C 35116.2 hPa West 2.6 km/h 12.9 km/h 96 % 0 mm
05:52 -13.1 °C -13.4 °C 35116.2 hPa NW 2.6 km/h 7.7 km/h 96 % 0 mm
06:02 -13.1 °C -13.4 °C 35116.2 hPa Calm   7.7 km/h 96 % 0 mm
06:12 -13.1 °C -13.4 °C 35116.2 hPa NW 2.6 km/h 10.3 km/h 96 % 0 mm
06:17 -13.1 °C -13.4 °C 35116.2 hPa NW 5.1 km/h 10.3 km/h 96 % 0 mm
06:22 -13.1 °C -13.4 °C 35116.2 hPa NNW 5.1 km/h 10.3 km/h 96 % 0 mm
06:37 -13.2 °C -13.5 °C 35116.2 hPa NNW 5.1 km/h 20.8 km/h 96 % 0 mm
06:42 -13.2 °C -13.5 °C 35116.2 hPa WNW 2.6 km/h 20.8 km/h 96 % 0 mm
06:47 -13.2 °C -13.6 °C 35129.8 hPa WNW 7.7 km/h 20.8 km/h 96 % 0 mm
06:52 -13.2 °C -13.6 °C 35129.8 hPa WNW 10.3 km/h 20.8 km/h 96 % 0 mm
07:02 -13.4 °C -13.7 °C 35129.8 hPa NNW 12.9 km/h 20.8 km/h 96 % 0 mm
07:07 -13.4 °C -13.7 °C 35129.8 hPa NNW 10.3 km/h 33.6 km/h 96 % 0 mm
07:17 -13.4 °C -13.9 °C 35129.8 hPa NNW 10.3 km/h 28.5 km/h 95 % 0 mm
07:22 -13.5 °C -13.9 °C 35129.8 hPa WNW 10.3 km/h 28.5 km/h 95 % 0 mm
07:32 -13.5 °C -13.9 °C 35129.8 hPa NNW 5.1 km/h 18.2 km/h 95 % 0 mm
07:42 -13.5 °C -13.9 °C 35129.8 hPa WNW 2.6 km/h 18.2 km/h 95 % 0 mm
07:52 -13.5 °C -13.9 °C 35129.8 hPa NW 2.6 km/h 23.3 km/h 95 % 0 mm
07:57 -13.5 °C -13.9 °C 35129.8 hPa NW 2.6 km/h 12.9 km/h 95 % 0 mm
08:02 -13.5 °C -13.9 °C 35129.8 hPa NW 7.7 km/h 12.9 km/h 95 % 0 mm
08:12 -13.5 °C -13.9 °C 35129.8 hPa NW 2.6 km/h 12.9 km/h 95 % 0 mm
08:22 -13.5 °C -13.9 °C 35129.8 hPa NW 5.1 km/h 15.6 km/h 95 % 0 mm
08:27 -13.6 °C -13.9 °C 35129.8 hPa NW 7.7 km/h 15.6 km/h 95 % 0 mm
08:42 -13.6 °C -13.9 °C 35129.8 hPa NW 2.6 km/h 18.2 km/h 95 % 0 mm
08:47 -13.6 °C -13.9 °C 35139.9 hPa WNW 7.7 km/h 18.2 km/h 95 % 0 mm
08:52 -13.6 °C -13.9 °C 35139.9 hPa WNW 2.6 km/h 18.2 km/h 95 % 0 mm
09:07 -13.6 °C -13.9 °C 35139.9 hPa Calm   12.9 km/h 95 % 0 mm
09:17 -13.6 °C -14 °C 35139.9 hPa West 2.6 km/h 7.7 km/h 95 % 0 mm
09:22 -13.6 °C -13.9 °C 35139.9 hPa West 5.1 km/h 7.7 km/h 95 % 0 mm
09:27 -13.6 °C -13.9 °C 35139.9 hPa WSW 2.6 km/h 5.1 km/h 95 % 0 mm
09:37 -13.6 °C -13.9 °C 35139.9 hPa WNW 5.1 km/h 5.1 km/h 95 % 0 mm
09:42 -13.6 °C -13.9 °C 35150.1 hPa WNW 5.1 km/h 5.1 km/h 95 % 0 mm
09:52 -13.5 °C -13.9 °C 35150.1 hPa WNW 2.6 km/h 7.7 km/h 95 % 0 mm
10:02 -13.4 °C -13.9 °C 35150.1 hPa WNW 5.1 km/h 7.7 km/h 95 % 0 mm
10:07 -13.4 °C -13.8 °C 35163.6 hPa WNW 5.1 km/h 7.7 km/h 95 % 0 mm
10:17 -13.3 °C -13.8 °C 35163.6 hPa WNW 7.7 km/h 12.9 km/h 95 % 0 mm
10:27 -13.3 °C -13.8 °C 35163.6 hPa West 10.3 km/h 12.9 km/h 94 % 0 mm
10:42 -13.2 °C -13.7 °C 35163.6 hPa West 7.7 km/h 15.6 km/h 94 % 0 mm
10:47 -13.2 °C -13.7 °C 35163.6 hPa WNW 5.1 km/h 10.3 km/h 94 % 0 mm
11:02 -13.1 °C -13.7 °C 35163.6 hPa WNW 15.6 km/h 15.6 km/h 93 % 0 mm
11:12 -13.1 °C -13.7 °C 35163.6 hPa NW 10.3 km/h 23.3 km/h 93 % 0 mm
11:17 -13.1 °C -13.7 °C 35163.6 hPa WNW 7.7 km/h 23.3 km/h 93 % 0 mm
11:27 -13.1 °C -13.7 °C 35163.6 hPa NW 10.3 km/h 15.6 km/h 93 % 0 mm
11:32 -13.1 °C -13.7 °C 35163.6 hPa WNW 15.6 km/h 15.6 km/h 92 % 0 mm
11:42 -13.1 °C -13.8 °C 35150.1 hPa WNW 7.7 km/h 25.9 km/h 92 % 0 mm
11:52 -13.1 °C -13.7 °C 35150.1 hPa West 2.6 km/h 20.8 km/h 93 % 0 mm
12:02 -13 °C -13.7 °C 35150.1 hPa NW 5.1 km/h 18.2 km/h 92 % 0 mm
12:07 -13 °C -13.7 °C 35150.1 hPa WNW 5.1 km/h 12.9 km/h 92 % 0 mm
12:12 -13 °C -13.7 °C 35150.1 hPa WNW 7.7 km/h 12.9 km/h 92 % 0 mm
12:17 -13 °C -13.8 °C 35150.1 hPa NW 10.3 km/h 12.9 km/h 91 % 0 mm
12:22 -13 °C -13.8 °C 35150.1 hPa NW 2.6 km/h 12.9 km/h 91 % 0 mm
12:37 -12.9 °C -13.7 °C 35150.1 hPa West 5.1 km/h 15.6 km/h 91 % 0 mm
12:42 -12.9 °C -13.7 °C 35139.9 hPa WNW 7.7 km/h 15.6 km/h 91 % 0 mm
12:47 -12.9 °C -13.7 °C 35139.9 hPa Calm   15.6 km/h 91 % 0 mm
12:52 -12.8 °C -13.7 °C 35139.9 hPa West 5.1 km/h 15.6 km/h 90 % 0 mm
13:12 -12.7 °C -13.5 °C 35139.9 hPa NW 2.6 km/h 15.6 km/h 91 % 0 mm
13:17 -12.7 °C -13.5 °C 35129.8 hPa West 7.7 km/h 15.6 km/h 91 % 0 mm
13:22 -12.8 °C -13.6 °C 35129.8 hPa WSW 12.9 km/h 12.9 km/h 91 % 0 mm
13:32 -12.8 °C -13.6 °C 35129.8 hPa NW 5.1 km/h 15.6 km/h 91 % 0 mm
13:42 -12.8 °C -13.5 °C 35129.8 hPa WNW 5.1 km/h 12.9 km/h 92 % 7.62 mm
13:47 -12.8 °C -13.5 °C 35129.8 hPa West 2.6 km/h 12.9 km/h 92 % 7.62 mm
13:57 -12.8 °C -13.6 °C 35129.8 hPa WNW 7.7 km/h 12.9 km/h 91 % 7.62 mm
14:02 -12.8 °C -13.5 °C 35129.8 hPa West 5.1 km/h 20.8 km/h 92 % 7.62 mm
14:12 -12.8 °C -13.5 °C 35129.8 hPa NW 5.1 km/h 20.8 km/h 92 % 7.62 mm
14:17 -12.8 °C -13.5 °C 35129.8 hPa Calm   20.8 km/h 92 % 7.62 mm
14:22 -12.8 °C -13.5 °C 35116.2 hPa Calm   12.9 km/h 92 % 7.62 mm
14:27 -12.8 °C -13.5 °C 35116.2 hPa West 5.1 km/h 12.9 km/h 92 % 7.62 mm
14:37 -12.8 °C -13.5 °C 35116.2 hPa Calm   10.3 km/h 92 % 0 mm
14:42 -12.8 °C -13.5 °C 35116.2 hPa Calm   10.3 km/h 92 % 0 mm
14:47 -12.8 °C -13.5 °C 35116.2 hPa WNW 2.6 km/h 10.3 km/h 92 % 0 mm
14:52 -12.8 °C -13.5 °C 35116.2 hPa Calm   7.7 km/h 92 % 0 mm
14:57 -12.9 °C -13.5 °C 35116.2 hPa Calm   7.7 km/h 93 % 0 mm
15:22 -13.1 °C -13.5 °C 35116.2 hPa Calm   5.1 km/h 95 % 0 mm
15:27 -13.1 °C -13.5 °C 35116.2 hPa Calm   5.1 km/h 95 % 0 mm
15:32 -13.1 °C -13.5 °C 35116.2 hPa Calm   5.1 km/h 95 % 0 mm
15:42 -13 °C -13.3 °C 35116.2 hPa Calm   5.1 km/h 96 % 0 mm
15:52 -13 °C -13.3 °C 35116.2 hPa Calm   2.6 km/h 96 % 7.62 mm
15:57 -13 °C -13.3 °C 35116.2 hPa Calm   2.6 km/h 96 % 12.7 mm
16:02 -13 °C -13.3 °C 35116.2 hPa Calm   2.6 km/h 96 % 12.7 mm
16:12 -13 °C -13.3 °C 35116.2 hPa Calm   2.6 km/h 96 % 12.7 mm
16:17 -13.1 °C -13.4 °C 35116.2 hPa Calm   2.6 km/h 96 % 12.7 mm
16:27 -13.1 °C -13.4 °C 35116.2 hPa Calm   2.6 km/h 96 % 12.7 mm
16:37 -13.1 °C -13.4 °C 35129.8 hPa Calm   2.6 km/h 96 % 20.32 mm
16:47 -13.1 °C -13.4 °C 35129.8 hPa Calm   2.6 km/h 96 % 12.7 mm
16:52 -13.1 °C -13.4 °C 35116.2 hPa Calm   2.6 km/h 96 % 12.7 mm
17:02 -13.1 °C -13.3 °C 35116.2 hPa Calm     97 % 12.7 mm
17:17 -13.1 °C -13.3 °C 35129.8 hPa Calm     97 % 12.7 mm
17:22 -13.1 °C -13.3 °C 35129.8 hPa Calm     97 % 12.7 mm
17:27 -13.1 °C -13.3 °C 35129.8 hPa Calm     97 % 7.62 mm
17:42 -13.1 °C -13.3 °C 35129.8 hPa Calm     97 % 7.62 mm
17:52 -13.1 °C -13.3 °C 35129.8 hPa Calm     97 % 7.62 mm
17:57 -13.1 °C -13.3 °C 35129.8 hPa Calm     97 % 0 mm
18:02 -13.1 °C -13.3 °C 35129.8 hPa Calm     97 % 0 mm
18:12 -13.1 °C -13.3 °C 35129.8 hPa Calm     97 % 0 mm
18:17 -13.1 °C -13.3 °C 35129.8 hPa Calm     97 % 0 mm
18:22 -13.1 °C -13.3 °C 35129.8 hPa Calm     97 % 0 mm
18:32 -13.1 °C -13.3 °C 35129.8 hPa Calm     97 % 0 mm
18:37 -13.2 °C -13.4 °C 35129.8 hPa Calm     97 % 0 mm
18:42 -13.2 °C -13.4 °C 35129.8 hPa Calm   2.6 km/h 97 % 7.62 mm
18:47 -13.2 °C -13.4 °C 35129.8 hPa Calm   2.6 km/h 97 % 7.62 mm
18:52 -13.2 °C -13.4 °C 35129.8 hPa Calm   2.6 km/h 97 % 7.62 mm
18:57 -13.2 °C -13.4 °C 35129.8 hPa Calm     97 % 7.62 mm
19:07 -13.2 °C -13.4 °C 35139.9 hPa Calm     97 % 7.62 mm
19:12 -13.2 °C -13.4 °C 35139.9 hPa Calm     97 % 7.62 mm
19:17 -13.2 °C -13.4 °C 35139.9 hPa Calm     97 % 7.62 mm
19:22 -13.1 °C -13.3 °C 35139.9 hPa Calm     97 % 7.62 mm
19:32 -13.1 °C -13.3 °C 35139.9 hPa Calm   2.6 km/h 97 % 0 mm
19:42 -13.1 °C -13.3 °C 35139.9 hPa Calm   2.6 km/h 97 % 7.62 mm
19:52 -13.1 °C -13.3 °C 35139.9 hPa Calm   2.6 km/h 97 % 7.62 mm
20:02 -13.1 °C -13.3 °C 35150.1 hPa Calm   2.6 km/h 97 % 7.62 mm
20:27 -13.1 °C -13.3 °C 35150.1 hPa NNE 5.1 km/h 5.1 km/h 97 % 7.62 mm
20:37 -13 °C -13.2 °C 35150.1 hPa NNE 2.6 km/h 10.3 km/h 97 % 7.62 mm
20:42 -13 °C -13.2 °C 35150.1 hPa NNE 2.6 km/h 10.3 km/h 97 % 0 mm
20:47 -13 °C -13.2 °C 35150.1 hPa North 5.1 km/h 10.3 km/h 97 % 0 mm
21:02 -13 °C -13.2 °C 35150.1 hPa Calm   12.9 km/h 97 % 0 mm
21:07 -13 °C -13.2 °C 35150.1 hPa NNW 2.6 km/h 12.9 km/h 97 % 0 mm
21:12 -13 °C -13.2 °C 35150.1 hPa NNW 2.6 km/h 12.9 km/h 97 % 0 mm
21:17 -13 °C -13.2 °C 35150.1 hPa NNE 7.7 km/h 10.3 km/h 97 % 0 mm
21:22 -13 °C -13.2 °C 35150.1 hPa NNE 7.7 km/h 10.3 km/h 97 % 0 mm
21:32 -13.1 °C -13.3 °C 35150.1 hPa NE 5.1 km/h 10.3 km/h 97 % 0 mm
21:47 -13.1 °C -13.3 °C 35163.6 hPa NE 7.7 km/h 7.7 km/h 97 % 0 mm
21:57 -13.1 °C -13.3 °C 35150.1 hPa NNE 2.6 km/h 10.3 km/h 97 % 0 mm
22:07 -13.1 °C -13.3 °C 35150.1 hPa North 2.6 km/h 5.1 km/h 97 % 0 mm
22:12 -13.2 °C -13.4 °C 35150.1 hPa NNE 2.6 km/h 5.1 km/h 97 % 0 mm
22:17 -13.2 °C -13.4 °C 35163.6 hPa NNW 2.6 km/h 7.7 km/h 97 % 0 mm
22:27 -13.2 °C -13.4 °C 35150.1 hPa Calm   5.1 km/h 97 % 0 mm
22:42 -13.2 °C -13.4 °C 35163.6 hPa Calm   2.6 km/h 97 % 0 mm
22:47 -13.2 °C -13.4 °C 35150.1 hPa Calm   2.6 km/h 97 % 0 mm
22:52 -13.2 °C -13.4 °C 35163.6 hPa Calm   2.6 km/h 97 % 0 mm
23:02 -13.2 °C -13.4 °C 35163.6 hPa Calm   2.6 km/h 97 % 0 mm
23:12 -13.2 °C -13.4 °C 35163.6 hPa Calm   2.6 km/h 97 % 0 mm
23:17 -13.2 °C -13.4 °C 35163.6 hPa Calm   2.6 km/h 97 % 0 mm
23:27 -13.2 °C -13.4 °C 35173.8 hPa NNE 2.6 km/h 2.6 km/h 97 % 0 mm
23:32 -13.2 °C -13.4 °C 35163.6 hPa Calm   2.6 km/h 97 % 0 mm
23:42 -13.2 °C -13.4 °C 35173.8 hPa Calm   2.6 km/h 97 % 0 mm
23:47 -13.2 °C -13.4 °C 35173.8 hPa Calm     97 % 0 mm
23:52 -13.2 °C -13.4 °C 35173.8 hPa Calm     97 % 0 mm
23:57 -13.2 °C -13.4 °C 35173.8 hPa Calm   2.6 km/h 97 % 0 mm
Meteo18
Compliments of Weather Underground - 4 mb

Script developed by  Jim McMurry - jmcmurry@mwt.net Adapted for the template by  Wim van der Kuil - Leuven-Template.eu

You find our weather info also at:

European Weather Network

Weather Underground

Equipment we use:

Weather-station
Davis Vue

Weather-program
Meteobridge

Weather-server
Raspberry PI 2 B+

Provider
1 and 1

Davis Vue

Meteobridge

Raspberry PI 2 B+

1 and 1